TimeEDT,TemperatureF,Dew PointF,Humidity,Sea Level PressureIn,VisibilityMPH,Wind Direction,Wind SpeedMPH,Gust SpeedMPH,PrecipitationIn,Events,Conditions,WindDirDegrees,DateUTC
12:15 AM,60.8,53.6,77,30.14,10.0,ENE,3.5,-,N/A,,Partly Cloudy,70,2013-04-16 04:15:00
12:35 AM,57.2,51.8,82,30.15,10.0,Calm,Calm,-,N/A,,Clear,0,2013-04-16 04:35:00
12:55 AM,59.0,51.8,77,30.15,10.0,NE,5.8,-,N/A,,Clear,50,2013-04-16 04:55:00
1:15 AM,57.2,51.8,82,30.15,10.0,NE,5.8,-,N/A,,Scattered Clouds,50,2013-04-16 05:15:00
1:35 AM,57.2,51.8,82,30.16,10.0,NE,4.6,-,N/A,,Overcast,50,2013-04-16 05:35:00
1:55 AM,57.2,51.8,82,30.15,10.0,Calm,Calm,-,N/A,,Unknown,0,2013-04-16 05:55:00
2:15 AM,57.2,51.8,82,30.15,10.0,Calm,Calm,-,N/A,,Unknown,0,2013-04-16 06:15:00
2:35 AM,57.2,50.0,77,30.15,10.0,Calm,Calm,-,N/A,,Overcast,0,2013-04-16 06:35:00
2:55 AM,55.4,50.0,82,30.15,10.0,Calm,Calm,-,N/A,,Overcast,0,2013-04-16 06:55:00
3:15 AM,55.4,50.0,82,30.14,10.0,Calm,Calm,-,N/A,,Overcast,0,2013-04-16 07:15:00
3:35 AM,55.4,50.0,82,30.14,10.0,Calm,Calm,-,N/A,,Overcast,0,2013-04-16 07:35:00
3:55 AM,53.6,50.0,88,30.15,10.0,Calm,Calm,-,N/A,,Overcast,0,2013-04-16 07:55:00
4:15 AM,55.4,50.0,82,30.15,10.0,Calm,Calm,-,N/A,,Overcast,0,2013-04-16 08:15:00
4:35 AM,55.4,51.8,88,30.15,10.0,Calm,Calm,-,N/A,,Overcast,0,2013-04-16 08:35:00
4:55 AM,55.4,50.0,82,30.16,10.0,Calm,Calm,-,N/A,,Mostly Cloudy,0,2013-04-16 08:55:00
5:15 AM,53.6,50.0,88,30.16,10.0,Calm,Calm,-,N/A,,Partly Cloudy,0,2013-04-16 09:15:00
5:35 AM,51.8,50.0,94,30.16,10.0,Calm,Calm,-,N/A,,Partly Cloudy,0,2013-04-16 09:35:00
5:55 AM,53.6,50.0,88,30.17,10.0,Calm,Calm,-,N/A,,Clear,0,2013-04-16 09:55:00
6:15 AM,50.0,50.0,100,30.17,10.0,Calm,Calm,-,N/A,,Clear,0,2013-04-16 10:15:00
6:35 AM,50.0,50.0,100,30.19,10.0,Calm,Calm,-,N/A,,Clear,0,2013-04-16 10:35:00
6:55 AM,50.0,48.2,94,30.20,10.0,Calm,Calm,-,N/A,,Clear,0,2013-04-16 10:55:00
7:15 AM,48.2,48.2,100,30.21,10.0,Calm,Calm,-,N/A,,Clear,0,2013-04-16 11:15:00
7:35 AM,50.0,50.0,100,30.23,10.0,Calm,Calm,-,N/A,,Clear,0,2013-04-16 11:35:00
7:55 AM,50.0,50.0,100,30.24,10.0,Calm,Calm,-,N/A,,Partly Cloudy,0,2013-04-16 11:55:00
8:15 AM,53.6,50.0,88,30.25,10.0,Calm,Calm,-,N/A,,Partly Cloudy,0,2013-04-16 12:15:00
8:35 AM,55.4,51.8,88,30.25,10.0,Calm,Calm,-,N/A,,Clear,0,2013-04-16 12:35:00
8:55 AM,57.2,53.6,88,30.26,10.0,Calm,Calm,-,N/A,,Clear,0,2013-04-16 12:55:00
9:15 AM,60.8,53.6,77,30.26,10.0,Calm,Calm,-,N/A,,Clear,0,2013-04-16 13:15:00
9:35 AM,64.4,55.4,73,30.27,10.0,Calm,Calm,-,N/A,,Clear,0,2013-04-16 13:35:00
9:55 AM,66.2,55.4,68,30.27,10.0,Calm,Calm,-,N/A,,Partly Cloudy,0,2013-04-16 13:55:00
10:15 AM,68.0,55.4,64,30.27,10.0,Calm,Calm,-,N/A,,Scattered Clouds,0,2013-04-16 14:15:00
10:35 AM,68.0,55.4,64,30.28,10.0,Calm,Calm,-,N/A,,Partly Cloudy,0,2013-04-16 14:35:00
10:55 AM,69.8,55.4,60,30.28,10.0,Calm,Calm,-,N/A,,Clear,0,2013-04-16 14:55:00
11:15 AM,71.6,55.4,57,30.28,10.0,Calm,Calm,-,N/A,,Partly Cloudy,0,2013-04-16 15:15:00
11:35 AM,71.6,55.4,57,30.28,10.0,Calm,Calm,-,N/A,,Scattered Clouds,0,2013-04-16 15:35:00
11:55 AM,73.4,55.4,53,30.27,10.0,Calm,Calm,-,N/A,,Scattered Clouds,0,2013-04-16 15:55:00
12:15 PM,73.4,55.4,53,30.27,10.0,Calm,Calm,-,N/A,,Partly Cloudy,0,2013-04-16 16:15:00
12:35 PM,73.4,55.4,53,30.26,10.0,Calm,Calm,-,N/A,,Scattered Clouds,0,2013-04-16 16:35:00
12:55 PM,75.2,55.4,50,30.25,10.0,WSW,8.1,-,N/A,,Scattered Clouds,240,2013-04-16 16:55:00
1:15 PM,77.0,57.2,50,30.24,10.0,West,9.2,-,N/A,,Partly Cloudy,260,2013-04-16 17:15:00
1:35 PM,77.0,57.2,50,30.23,10.0,West,9.2,-,N/A,,Scattered Clouds,270,2013-04-16 17:35:00
1:55 PM,77.0,57.2,50,30.22,10.0,West,9.2,-,N/A,,Partly Cloudy,270,2013-04-16 17:55:00
2:15 PM,78.8,57.2,47,30.21,10.0,West,6.9,-,N/A,,Clear,280,2013-04-16 18:15:00
2:35 PM,78.8,57.2,47,30.21,10.0,WSW,8.1,-,N/A,,Clear,250,2013-04-16 18:35:00
2:55 PM,80.6,57.2,45,30.20,10.0,West,9.2,-,N/A,,Clear,260,2013-04-16 18:55:00
3:15 PM,80.6,55.4,42,30.19,10.0,West,5.8,-,N/A,,Clear,280,2013-04-16 19:15:00
3:35 PM,80.6,57.2,45,30.18,10.0,Calm,Calm,-,N/A,,Clear,0,2013-04-16 19:35:00
3:55 PM,80.6,55.4,42,30.18,10.0,SW,8.1,-,N/A,,Clear,230,2013-04-16 19:55:00
4:15 PM,80.6,55.4,42,30.17,10.0,West,4.6,-,N/A,,Clear,260,2013-04-16 20:15:00
4:35 PM,82.4,55.4,39,30.17,10.0,West,9.2,-,N/A,,Clear,270,2013-04-16 20:35:00
4:55 PM,82.4,55.4,39,30.16,10.0,SW,8.1,-,N/A,,Partly Cloudy,230,2013-04-16 20:55:00
5:15 PM,82.4,55.4,39,30.15,10.0,SSW,6.9,-,N/A,,Partly Cloudy,210,2013-04-16 21:15:00
5:35 PM,80.6,55.4,42,30.15,10.0,Calm,Calm,-,N/A,,Partly Cloudy,0,2013-04-16 21:35:00
5:55 PM,82.4,55.4,39,30.15,10.0,SW,4.6,-,N/A,,Partly Cloudy,230,2013-04-16 21:55:00
6:15 PM,80.6,55.4,42,30.15,10.0,SSW,6.9,-,N/A,,Clear,200,2013-04-16 22:15:00
6:35 PM,80.6,57.2,45,30.15,10.0,SW,6.9,-,N/A,,Partly Cloudy,230,2013-04-16 22:35:00
6:55 PM,80.6,57.2,45,30.15,10.0,SSW,8.1,-,N/A,,Partly Cloudy,210,2013-04-16 22:55:00
7:15 PM,80.6,57.2,45,30.15,10.0,SW,6.9,-,N/A,,Clear,220,2013-04-16 23:15:00
7:35 PM,77.0,57.2,50,30.16,10.0,SSW,4.6,-,N/A,,Partly Cloudy,210,2013-04-16 23:35:00
7:55 PM,77.0,59.0,54,30.16,10.0,SSW,3.5,-,N/A,,Partly Cloudy,200,2013-04-16 23:55:00
8:15 PM,75.2,59.0,57,30.17,10.0,Calm,Calm,-,N/A,,Clear,0,2013-04-17 00:15:00
8:35 PM,71.6,59.0,64,30.17,10.0,Calm,Calm,-,N/A,,Partly Cloudy,0,2013-04-17 00:35:00
8:55 PM,69.8,59.0,68,30.18,10.0,Calm,Calm,-,N/A,,Scattered Clouds,0,2013-04-17 00:55:00
9:15 PM,68.0,59.0,73,30.19,10.0,Calm,Calm,-,N/A,,Mostly Cloudy,0,2013-04-17 01:15:00
9:35 PM,66.2,59.0,78,30.20,10.0,Calm,Calm,-,N/A,,Mostly Cloudy,0,2013-04-17 01:35:00
9:55 PM,66.2,59.0,78,30.20,10.0,Calm,Calm,-,N/A,,Scattered Clouds,0,2013-04-17 01:55:00
10:15 PM,66.2,59.0,78,30.21,10.0,Calm,Calm,-,N/A,,Mostly Cloudy,0,2013-04-17 02:15:00
10:35 PM,66.2,59.0,78,30.21,10.0,Calm,Calm,-,N/A,,Mostly Cloudy,0,2013-04-17 02:35:00
10:55 PM,62.6,59.0,88,30.22,10.0,Calm,Calm,-,N/A,,Unknown,0,2013-04-17 02:55:00
11:15 PM,64.4,59.0,83,30.21,10.0,Calm,Calm,-,N/A,,Unknown,0,2013-04-17 03:15:00
11:35 PM,64.4,59.0,83,30.21,10.0,Calm,Calm,-,N/A,,Overcast,0,2013-04-17 03:35:00
11:55 PM,62.6,59.0,88,30.20,10.0,NNE,3.5,-,N/A,,Overcast,20,2013-04-17 03:55:00